星链-36982(STARLINK-36982)

导读 | 豆包AI

STARLINK-36982(NORAD编号68278)是美国太空探索技术公司(SpaceX)星链(Starlink)星座的组网卫星,属于二代星链(Gen2)卫星。星链计划是全球规模最大的低轨互联网星座项目,旨在为全球提供高速低延迟卫星互联网服务,STARLINK-36982运行在近地轨道,采用紧凑平板设计,依托猎鹰九号火箭发射组网,和其他星链卫星共同构建覆盖全球的天基通信网络,支撑消费级互联网接入、特殊场景通信服务等应用。

基本信息
目录编号:
68278
目录名称:
STARLINK-36982
国际标识:
2026-055S
轨道中心:
EARTH
卫星名称:
星链-36982
卫星全名:
星链-36982(STARLINK-36982)
卫星状态:
在轨 (已飞行26 天)
发射日期:
2026-03-19 UTC
国别 :
美国 (US)
星等 :
--
轨道信息
数据来源 国际轨道数据
星历时间: 2026-04-14T17:54:24+0800
10小时前
查看轨道信息
半长轴: 6705.852km
偏心率: 0.0001239
轨道倾角: 53.159°
近地点辐角 54.605°
升交点赤经 158.126°
平近点角 305.509°
近地点: 326.884km
远地点: 328.546km
周期: 91.084分钟
每日圈数: 15.809635
详细信息
固有亮度:
5
最大亮度:
2.5
卫星平台:
Starlink V1.0
覆盖范围:
全球
运营商:
太空探索技术公司
运营商所在国:
美国
制造商(研发单位):
太空探索技术公司
制造商所在国:
美国
使用方式:
暂无
卫星简介
Starlink 计划是 SpaceX 推出的全球卫星互联网项目,通过发射低轨道卫星,为全球尤其是偏远地区提供高速、低延迟的互联网服务。自 2019 年起,Starlink 已部署数千颗卫星,旨在缩小全球数字鸿沟,推动互联网普及。该项目还为军事、航空等行业提供通信支持,带来广泛经济效益。
2D轨道图
3D轨道图
轨道高度分析图
轨道倾角分析图
轨道综合分析图
查看轨道综合分析图